Showing default

YAM-13, 68993

Orbit data source: Space-Track

YAM-13, 68993 is an American payload satellite in SSO that was launched on Sun, 03 May 2026 UTC via an FALCON 9 launch vehicle from the Air Force Western Test Range (AFWTR). Payload-class satellites include a variety of spacecraft equipped with specific instruments for various scientific and technological missions. These include communications satellites like Starlink; space stations such as the ISS; scientific satellites like the Hubble; Earth observation satellites from companies like Planet Labs, Umbra, and HawkEye 360; GPS; miniature CubeSats for education and research; and military/defense satellites.

Loading next visibility...
Identifier
68993, 2026-100P
Orbit
SSO
Country
Flag of USUS
Related business
Manufacturer
Airbus/Toulouse
Mission
Operational spacecraft
Bus & Motor
ARROW, Unknown motor
Mass
~150 kg wet, ~140 kg dry
Launch date (UTC)
2026-05-03 (1 month ago)
Launch vehicle
FALCON 9
Launch site
Air Force Western Test Range (AFWTR)
Object type
Payload
Rocket body
Debris
Shape & HBR
Unknown shape, 14.5 m
Radar Cross Section
Large (>1 m²)

Expand to show TLE details & history
Last TLE update: 9 hours ago

TLE from 9 hours ago
0 YAM-13
1 68993U 26100P   26168.67760433  .00001264  00000-0  13543-3 0  9995
2 68993  97.7368  66.1295 0011242  81.2526 278.9965 14.90367067  6779
Epoch: 2026-06-17T16:15Z
TLE epoch observation values (Epoch: 2026-06-17T16:15:45.014Z)
Latitude
0.00002°
Longitude
-83.73991°
Altitude
598.613 km
Speed
7.561 km/s
True Right ascension
04h 24m 31s
True Declination
0° 00' 00"
Sunlit
Object was in daylight at epoch
Visualization orbit readout
Latitude
Unknown
Longitude
Unknown
Altitude
Unknown
Speed
Unknown
Apparent Right ascension
Unknown
Apparent Declination
Unknown
Sunlit
N/A
Visualization observer readout
Local Sidereal Time
12:16:46
Azimuth
Unknown
Elevation
Unknown
Doppler factor
Unknown
Orbital elements
Apogee altitude
601.648 km
Perigee altitude
585.972 km
Semi-major axis
6,971.947 km
Eccentricity
0.00112
Inclination
97.7368°
RAAN
66.1295°
Arg. of periapsis
81.2526°
True anomaly
278.86923°
Mean anomaly
278.9965°
Eccentric anomaly
278.93287°
Mean motion
3.72831 °/min
Orbital period
96.56 mins
BSTAR
0.00013543
Loading maneuver chart data...
Computing Atmospheric mass density...
Loading historical data...
Loading historical data...
Loading historical data...
Loading historical data...
Loading historical data...
Loading historical data...
Loading historical data...

Documentation

Showing up to 5 results
|